Regional Weather Roundup
Issued by NWS

Home | Current Version | Previous Version | Graphics & Text | Print | Product List | Glossary On
Versions: 1 2 3 4 5 6 7 8 9 10 11 12 13 14 15 16 17 18 19 20 21 22 23 24 25 26 27 28 29 30 31 32 33 34 35 36 37 38 39 40 41 42 43 44 45 46 47 48 49 50
658
ASUS43 KMPX 201410
RWRMN
WEATHER ROUNDUP FOR MINNESOTA
NATIONAL WEATHER SERVICE TWIN CITIES/CHANHASSEN MN
900 AM CDT WED SEP 20 2017


NOTE: "FAIR" INDICATES FEW OR NO CLOUDS BELOW 12,000 FEET WITH NO
SIGNIFICANT WEATHER AND/OR OBSTRUCTIONS TO VISIBILITY. N/A MEANS
CURRENT SKY AND/OR WEATHER CONDITIONS ARE NOT AVAILABLE.

MNZ060>063-068>070-201500-
   Twin Cities Metro

CITY           SKY/WX    TMP DP  RH WIND       PRES   REMARKS
TWIN CITIES    PTSUNNY   68  65  90 W10       29.69R
ST PAUL        PTSUNNY   72  68  87 SW9       29.69R
CRYSTAL        CLOUDY    67  61  81 SW8       29.67R
BLAINE         PTSUNNY   70  66  88 SW14      29.68R
LAKEVILLE      PTSUNNY   66  64  94 W9G20     29.70R
EDEN PRAIRIE   SUNNY     67  63  87 W9        29.68R
SOUTH ST PAUL  MOSUNNY   72  69  90 SW8       29.68R
LAKE ELMO      FAIR      72  68  88 S9        29.68R
$$
MNZ001>005-007-008-013>017-022>024-027-028-201500-
   Northwest Minnesota

CITY           SKY/WX    TMP DP  RH WIND       PRES   REMARKS
BEMIDJI        CLOUDY    57  54  89 W10       29.65R
HALLOCK        CLOUDY    54  52  94 W15       29.61R
ROSEAU         CLOUDY    55  50  82 W12G21    29.59R
WARROAD        MOSUNNY   55  52  88 W13G18    29.57R
THIEF RVR FALL SUNNY     55  51  86 W12       29.65R
CROOKSTON      SUNNY     54  52  94 W14       29.66R
FOSSTON        CLOUDY    52  50  93 SW10      29.67R
DETROIT LAKES  SUNNY     54  48  82 W14G20    29.71R
MOORHEAD       SUNNY     55  48  76 W10       29.71R
PARK RAPIDS    PTSUNNY   57  51  80 W14       29.68R
MAHNOMEN       FAIR      54  49  85 W14       29.68R
$$
MNZ006-009>011-018-025>026-201500-
   North Central Minnesota

CITY           SKY/WX    TMP DP  RH WIND       PRES   REMARKS
BAUDETTE       CLOUDY    57  56  96 W7        29.58R
FLAG ISLAND    PTSUNNY   54  54 100 W15       29.53R
INTL FALLS     CLOUDY    63  60  90 S9G23     29.59R
WASKISH        CLOUDY    57  57 100 W13       29.62R
BIG FORK       LGT RAIN  63  61  94 S6        29.61S
LONGVILLE      CLOUDY    61  57  88 W7        29.64R
GRAND RAPIDS   LGT RAIN  62  60  93 VRB5      29.65S FOG
CRANE LAKE     CLOUDY    61  59  94 SE5       29.62S
ORR            CLOUDY    61  57  88 SE9G18    29.59R
COOK           LGT RAIN  63  61  94 SE12G17   29.62S
WALKER         CLOUDY    58  55  89 W8        29.64R
$$
MNZ012-019>021-037-201500-
   Northeast Minnesota

CITY           SKY/WX    TMP DP  RH WIND       PRES   REMARKS
DULUTH         CLOUDY    61  61 100 SE12      29.66S
ELY            CLOUDY    61  59  94 SE12G20   29.64F
HIBBING        CLOUDY    61  60  97 SE10      29.63R
EVELETH        LGT RAIN  61  60  95 SE6       29.64S
DULUTH HARBOR  CLOUDY    63  63 100 N5        29.65S
TWO HARBORS    DRIZZLE   64  61  88 E6        29.66S
SILVER BAY     LGT RAIN  61  61 100 CALM      29.67F
GRAND MARAIS     N/A     60  59  96 NE8       29.72F
$$
MNZ029>031-032-039>041-046>048-054>057-064-201500-
   West Central Minnesota

CITY           SKY/WX    TMP DP  RH WIND       PRES   REMARKS
FERGUS FALLS   SUNNY     55  54  94 W13       29.73R
WHEATON        SUNNY     57  46  67 W9G18     29.76R
MORRIS         CLOUDY    57  54  88 NW12      29.73R
ALEXANDRIA     CLOUDY    57  51  80 NW15      29.73R
ELBOW LAKE     FAIR      55  52  89 NW13      29.74R
WADENA         CLOUDY    55  50  82 W9        29.69R
GLENWOOD       CLOUDY    59  54  82 W14G20    29.73R
APPLETON       CLOUDY    59  54  82 W10       29.75R
BENSON         CLOUDY    61  55  82 NW13      29.75R
ORTONVILLE     CLOUDY    55  48  76 NW10      29.75R
MADISON        CLOUDY    59  57  94 W6        29.77R
WILLMAR        FAIR      61  59  94 W9        29.74R
$$
MNZ033>034-036-042>043-049>051-058-059-201500-
   Central Minnesota

CITY           SKY/WX    TMP DP  RH WIND       PRES   REMARKS
ST CLOUD       CLOUDY    62  61  96 NW12      29.68R
SAUK CENTRE    FAIR      59  54  85 W14       29.72R
PAYNESVILLE    MOSUNNY   60  57  90 W15G21    29.72R
AITKIN         CLOUDY    61  59  94 SW6       29.64R
PINE RIVER     PTSUNNY   57  55  94 W7        29.70S
BRAINERD       CLOUDY    61  58  90 W9        29.66R
STAPLES        MOSUNNY   55  55 100 W12G17    29.69R
LONG PRAIRIE   PTSUNNY   57  54  88 W10G17    29.71R
LITTLE FALLS   SUNNY     61  57  88 W9        29.68R
LITCHFIELD     SUNNY     63  61  94 W8G17     29.71R
BUFFALO        PTSUNNY   64  59  85 W8        29.70R
MAPLE LAKE     CLOUDY    63  61  93 W12       29.70R
HUTCHINSON     SUNNY     63  59  88 W12G18    29.72R
$$
MNZ037-044-045-052-053-201500-
   East Central Minnesota

CITY           SKY/WX    TMP DP  RH WIND       PRES   REMARKS
PRINCETON      CLOUDY    64  63  94 W6        29.67R
MORA           CLOUDY    63  63 100 W13G22    29.67R
CAMBRIDGE      CLOUDY    68  63  83 W6        29.67R
RUSH CITY      CLOUDY    69  66  89 S7        29.66R
MOOSE LAKE     CLOUDY    64  63  94 S3        29.62S
HINCKLEY       CLOUDY    68  68 100 S9        29.64R
CLOQUET        CLOUDY    63  61  94 E5        29.64F FOG
MCGREGOR       CLOUDY    63  61  94 W6        29.65R
$$
MNZ071>073-080-081-089-090-097-098-201500-
   Southwest Minnesota

CITY           SKY/WX    TMP DP  RH WIND       PRES   REMARKS
MONTEVIDEO     CLOUDY    61  59  94 NW8G16    29.75R
GRANITE FALLS  SUNNY     60  56  86 W10       29.76R
CANBY          CLOUDY    57  51  80 NW10      29.78R
MARSHALL       SUNNY     58  53  84 NW14      29.77R
REDWOOD FALLS  SUNNY     60  56  86 W15       29.74R
OLIVIA         SUNNY     59  55  88 W15       29.73R
PIPESTONE      SUNNY     55  52  88 NW10      29.79R
WINDOM         SUNNY     61  55  82 W10       29.76R
WORTHINGTON    SUNNY     58  53  84 W14       29.77R
JACKSON        SUNNY     59  54  82 CALM      29.76R
TRACY          SUNNY     59  56  89 NW12      29.77R
SLAYTON        SUNNY     56  53  87 W15G24    29.77R
$$
MNZ065>067-074>077-082>085-091>093-201500-
   South Central Minnesota

CITY           SKY/WX    TMP DP  RH WIND       PRES   REMARKS
MANKATO        SUNNY     65  58  78 NW14      29.73R
NEW ULM        SUNNY     61  57  88 W12       29.74R
ST JAMES       SUNNY     63  55  77 W10       29.76R
FAIRMONT       SUNNY     63  56  78 W15       29.75R
GLENCOE        SUNNY     64  60  88 W8        29.70R
FARIBAULT      PTSUNNY   70  66  88 W12       29.72R
OWATONNA       PTSUNNY   70  66  88 S7        29.71R
WASECA         PTSUNNY   64  61  88 W7        29.74R
ALBERT LEA     MOSUNNY   73  70  88 S5          N/A
$$
MNZ078>079-086>088-094>096-201500-
   Southeast Minnesota

CITY           SKY/WX    TMP DP  RH WIND       PRES   REMARKS
ROCHESTER      SUNNY     72  66  81 S15       29.72R
RED WING       CLOUDY    73  64  73 S3        29.68R
STANTON        CLOUDY    73  66  80 SW8       29.68R
DODGE CENTER   PTSUNNY   72  64  78 S14G21    29.71R
WINONA         CLOUDY    73  64  73 S3        29.72S
AUSTIN         MOSUNNY   72  66  83 S10G16    29.72R
PRESTON        CLOUDY    71  64  80 S10G20    29.75S
$$
ABBREVIATIONS USED IN REMARKS
   TC - TEMPERATURES IN CELSIUS
  WCI - WIND CHILL INDEX
   HX - HEAT INDEX
  VSB - VISIBILITY
$$




USA.gov is the U.S. government's official web portal to all federal, state and local government web resources and services.